Zurück zum Katalog

DELTA 1 R/B(2)

AktivHEO
NORAD 15206·ROCKET BODY·🇺🇸 United States

Gestartet Aug 16, 1984 von Cape Canaveral Space Force Station

Loading…

Nächste Überflüge (nächste 24 Stunden)

TLE

AktuellSource: Space-Track

Epoche: Sep 13, 2026, 17:25 UTC

1 15206U 84088F   26256.72606946 -.00000231  00000-0 -91072-3 0  9993
2 15206  27.2535  89.3565 7815160 332.2090   2.0830  1.59002026239881

Verfolge DELTA 1 R/B(2) in Echtzeit mit AllMySat

Download on the App Store